Change the Weather History Date:

Saturday, January 25, 2014

  Actual Average Record
Temperature  
Mean Temperature 21 °F 30 °F  
Max Temperature 28 °F 37 °F 71 °F (1967)
Min Temperature 14 °F 22 °F 0 °F (1936)
Degree Days  
Heating Degree Days 44 35  
Month to date heating degree days 1008 872  
Since 1 July heating degree days 3009 2873  
Cooling Degree Days 0 0  
Month to date cooling degree days 0 0  
Year to date cooling degree days 0 0  
Moisture  
Dew Point 10 °F    
Average Humidity 59    
Maximum Humidity 74    
Minimum Humidity 43    
Precipitation  
Precipitation T in 0.09 in 1.48 in (1978)
Month to date precipitation 2.44 2.35  
Year to date precipitation 2.44 2.35  
Snow  
Snow 0.10 in 0.30 in 5.40 in (1988)
Month to date snowfall 11.8 6.7  
Since 1 July snowfall 21.0 12.4  
Snow Depth 2.00 in    
Sea Level Pressure  
Sea Level Pressure 29.62 in    
Wind  
Wind Speed 9 mph (SSW)    
Max Wind Speed 24 mph    
Max Gust Speed 33 mph    
Visibility 8 miles    
Events Fog , Snow    
T = Trace of Precipitation, MM = Missing Value Source: NWS Daily Summary

Daily Weather History Graph

Daily Weather History Graph

Search for Another Location

Airport or City:

Trip Planner

Search our weather history database for the weather conditions in past years. The results will help you decide how hot, cold, wet, or windy it might be!

Date:

Astronomy

Jan. 25, 2014 Rise Set
Actual Time 7:21 AM EST 5:17 PM EST
Civil Twilight 6:52 AM EST 5:46 PM EST
Nautical Twilight 6:19 AM EST 6:19 PM EST
Astronomical Twilight 5:47 AM EST 6:51 PM EST
Moon 1:51 AM EST (1/25) 12:16 PM EST (1/25)
Length of Visible Light 10h 53m
Length of Day
9h 55m
Waning Crescent, 34% of the Moon is Illuminated
Jan 25
Waning Crescent
Jan 30
New
Feb 6
First Quarter
Feb 14
Full
Feb 22
Last Quarter

Hourly Weather History & Observations

Time (EST) Temp. Windchill Dew Point Humidity Pressure Visibility Wind Dir Wind Speed Gust Speed Precip Events Conditions
12:56 AM 15.1 °F 6.4 °F -0.9 °F 49% 29.99 in 10.0 mi SE 5.8 mph - N/A   Mostly Cloudy
1:56 AM 18.0 °F 11.1 °F -0.9 °F 44% 29.94 in 10.0 mi Variable 4.6 mph - N/A   Overcast
2:56 AM 18.0 °F 11.1 °F -0.9 °F 44% 29.91 in 10.0 mi Variable 4.6 mph - N/A   Overcast
3:56 AM 19.0 °F 7.5 °F -0.0 °F 43% 29.86 in 10.0 mi South 10.4 mph - N/A   Overcast
4:56 AM 19.9 °F 8.6 °F -0.0 °F 42% 29.82 in 10.0 mi South 10.4 mph 16.1 mph N/A   Overcast
5:56 AM 19.9 °F 9.3 °F 1.9 °F 46% 29.79 in 10.0 mi South 9.2 mph - N/A   Overcast
6:56 AM 19.9 °F 6.2 °F 1.9 °F 46% 29.75 in 10.0 mi SSW 15.0 mph 21.9 mph N/A   Overcast
7:56 AM 19.9 °F 9.3 °F 3.9 °F 50% 29.73 in 10.0 mi South 9.2 mph - N/A   Overcast
8:56 AM 19.9 °F 10.1 °F 3.0 °F 48% 29.70 in 10.0 mi SSE 8.1 mph - N/A   Overcast
9:56 AM 21.0 °F 12.4 °F 3.9 °F 48% 29.66 in 10.0 mi SSE 6.9 mph - N/A   Overcast
10:56 AM 23.0 °F 12.4 °F 8.1 °F 53% 29.63 in 10.0 mi South 10.4 mph - N/A   Mostly Cloudy
11:56 AM 23.0 °F 11.7 °F 10.0 °F 58% 29.58 in 10.0 mi South 11.5 mph - N/A   Mostly Cloudy
12:56 PM 25.0 °F 15.5 °F 9.0 °F 51% 29.52 in 10.0 mi South 9.2 mph - N/A   Overcast
1:56 PM 25.0 °F 15.5 °F 7.0 °F 46% 29.48 in 10.0 mi South 9.2 mph 18.4 mph N/A   Overcast
2:56 PM 26.1 °F 16.2 °F 8.1 °F 47% 29.45 in 10.0 mi South 10.4 mph 16.1 mph N/A   Mostly Cloudy
3:56 PM 24.1 °F 15.2 °F 14.0 °F 65% 29.44 in 10.0 mi SSE 8.1 mph - N/A   Mostly Cloudy
4:56 PM 25.0 °F 19.3 °F 12.0 °F 58% 29.45 in 10.0 mi SSE 4.6 mph - N/A   Overcast
5:39 PM 26.6 °F 15.7 °F 12.2 °F 55% 29.45 in 5.0 mi SW 12.7 mph 18.4 mph 0.00 in Snow Light Snow
5:56 PM 26.1 °F 16.8 °F 14.0 °F 60% 29.47 in 6.0 mi SW 9.2 mph 19.6 mph 0.00 in Snow Light Snow
6:56 PM 25.0 °F 14.2 °F 17.1 °F 72% 29.47 in 9.0 mi SW 11.5 mph - 0.00 in Snow Light Snow
7:56 PM 25.0 °F - 17.1 °F 72% 29.48 in 10.0 mi Calm Calm - 0.00 in   Scattered Clouds
8:56 PM 24.1 °F 19.7 °F 18.0 °F 77% 29.48 in 10.0 mi SW 3.5 mph - N/A   Overcast
9:56 PM 28.0 °F 17.0 °F 19.0 °F 69% 29.50 in 10.0 mi West 13.8 mph 20.7 mph 0.00 in   Mostly Cloudy
10:26 PM 26.6 °F 12.0 °F 19.4 °F 74% 29.54 in 0.5 mi WNW 23.0 mph 31.1 mph 0.00 in Snow Snow
10:29 PM 24.8 °F 11.5 °F 19.4 °F 80% 29.54 in 0.1 mi WNW 17.3 mph 31.1 mph 0.00 in Fog , Snow Heavy Snow
10:33 PM 24.8 °F 10.7 °F 21.2 °F 86% 29.54 in 0.8 mi WNW 19.6 mph 31.1 mph 0.00 in Snow Light Snow
10:37 PM 24.8 °F 10.7 °F 21.2 °F 86% 29.54 in 0.5 mi WNW 19.6 mph 33.4 mph 0.00 in Fog , Snow Snow
10:43 PM 24.8 °F 11.5 °F 19.4 °F 80% 29.55 in 1.0 mi NW 17.3 mph 33.4 mph 0.00 in Snow Light Snow
10:56 PM 24.1 °F 13.1 °F 19.0 °F 81% 29.57 in 9.0 mi NW 11.5 mph - 0.00 in Snow Light Snow
11:56 PM 23.0 °F 8.7 °F 6.1 °F 48% 29.63 in 10.0 mi WNW 18.4 mph 29.9 mph 0.00 in   Scattered Clouds